Change the Weather History Date:

Thursday, October 25, 2012

  Actual Average Record
Temperature  
Mean Temperature 18 °F -  
Max Temperature 30 °F 47 °F 64 °F (2014)
Min Temperature 6 °F 22 °F 6 °F (2012)
Degree Days  
Heating Degree Days 47    
Moisture  
Dew Point -    
Average Humidity    
Maximum Humidity    
Minimum Humidity    
Precipitation  
Precipitation 0.01 in - - ()
Sea Level Pressure  
Sea Level Pressure 30.14 in    
Wind  
Wind Speed 1 mph (SSW)    
Max Wind Speed 8 mph    
Max Gust Speed -    
Visibility 7 miles    
Events Rain , Snow    
Averages and records for this station are not official NWS values.
T = Trace of Precipitation, MM = Missing Value Source: NWS Daily Summary

Daily Weather History Graph

Daily Weather History Graph

Search for Another Location

Airport or City:

Trip Planner

Search our weather history database for the weather conditions in past years. The results will help you decide how hot, cold, wet, or windy it might be!

Date:

Astronomy

Oct. 25, 2012 Rise Set
Actual Time 7:53 AM MDT 6:22 PM MDT
Civil Twilight 7:23 AM MDT 6:52 PM MDT
Nautical Twilight 6:49 AM MDT 7:26 PM MDT
Astronomical Twilight 6:15 AM MDT 8:00 PM MDT
Moon 4:17 PM MDT (10/25) 3:45 AM MDT (10/25)
Length of Visible Light 11h 28m
Length of Day
10h 28m
Waxing Gibbous, 85% of the Moon is Illuminated
Oct 25
Waxing Gibbous
Oct 29
Full
Nov 6
Last Quarter
Nov 13
New
Nov 20
First Quarter

Hourly Weather History & Observations

Time (MDT) Temp. Windchill Dew Point Humidity Pressure Visibility Wind Dir Wind Speed Gust Speed Precip Events Conditions
12:10 AM 6.8 °F - - N/A% 30.05 in 10.0 mi Calm Calm - N/A   Clear
12:30 AM 6.8 °F - - N/A% 30.05 in 10.0 mi Calm Calm - N/A   Partly Cloudy
12:50 AM 8.6 °F 2.0 °F - N/A% 30.05 in 10.0 mi SW 3.5 mph - N/A   Mostly Cloudy
1:30 AM 8.6 °F - - N/A% 30.06 in 10.0 mi Calm Calm - N/A   Mostly Cloudy
1:50 AM 8.6 °F - - N/A% 30.06 in 10.0 mi Calm Calm - N/A   Overcast
2:10 AM 8.6 °F - - N/A% 30.07 in 10.0 mi Calm Calm - N/A   Mostly Cloudy
2:30 AM 10.4 °F - - N/A% 30.07 in 10.0 mi Calm Calm - N/A   Overcast
2:50 AM 8.6 °F - - N/A% 30.07 in 10.0 mi Calm Calm - N/A   Overcast
3:10 AM 8.6 °F - - N/A% 30.07 in 10.0 mi Calm Calm - N/A   Overcast
3:30 AM 10.4 °F - - N/A% 30.06 in 10.0 mi Calm Calm - N/A   Overcast
3:50 AM 10.4 °F 2.2 °F - N/A% 30.06 in 10.0 mi West 4.6 mph - N/A   Overcast
4:10 AM 12.2 °F - - N/A% 30.06 in 10.0 mi Calm Calm - N/A   Mostly Cloudy
4:30 AM 14.0 °F - - N/A% 30.05 in 8.0 mi Calm Calm - N/A Snow Light Snow
4:50 AM 14.0 °F - - N/A% 30.05 in 2.5 mi Calm Calm - N/A Snow Light Snow
5:10 AM 14.0 °F - - N/A% 30.06 in 2.0 mi Calm Calm - N/A Snow Light Snow
6:10 AM 15.8 °F - - N/A% 30.06 in 1.2 mi Calm Calm - 0.01 in Snow Light Snow
6:30 AM 15.8 °F - - N/A% 30.06 in 1.2 mi Calm Calm - 0.01 in Snow Light Snow
6:50 AM 15.8 °F - - N/A% 30.07 in 1.5 mi Calm Calm - 0.01 in Snow Light Snow
7:30 AM 17.6 °F - - N/A% 30.07 in 1.5 mi Calm Calm - N/A Snow Light Snow
7:50 AM 17.6 °F - - N/A% 30.07 in 1.0 mi Calm Calm - N/A Snow Light Snow
8:10 AM 17.6 °F - - N/A% 30.07 in 0.8 mi Calm Calm - N/A Snow Light Snow
8:30 AM 17.6 °F - - N/A% 30.08 in 1.0 mi Calm Calm - N/A Snow Light Snow
8:50 AM 17.6 °F - - N/A% 30.09 in 0.8 mi Calm Calm - N/A Snow Light Snow
9:10 AM 17.6 °F - - N/A% 30.09 in 1.2 mi Calm Calm - N/A Snow Light Snow
9:50 AM 19.4 °F - - N/A% 30.09 in 2.5 mi Calm Calm - N/A   Clear
10:10 AM 19.4 °F - - N/A% 30.09 in 2.5 mi Calm Calm - N/A Rain Light Freezing Rain
10:30 AM 19.4 °F - - N/A% 30.10 in 4.0 mi Calm Calm - N/A Rain Light Freezing Rain
10:50 AM 21.2 °F - - N/A% 30.10 in 5.0 mi Calm Calm - N/A Rain Light Freezing Rain
11:10 AM 23.0 °F - - N/A% 30.10 in 4.0 mi Calm Calm - N/A Rain Light Freezing Rain
11:30 AM 23.0 °F - - N/A% 30.11 in 2.5 mi Calm Calm - N/A Rain Light Freezing Rain
11:50 AM 23.0 °F - - N/A% 30.11 in 2.5 mi Calm Calm - N/A Rain Light Freezing Rain
12:10 PM 24.8 °F 20.5 °F - N/A% 30.11 in 9.0 mi NE 3.5 mph - N/A Rain Light Freezing Rain
12:30 PM 24.8 °F 19.1 °F - N/A% 30.11 in 10.0 mi ENE 4.6 mph - N/A   Scattered Clouds
12:50 PM 26.6 °F 22.6 °F - N/A% 30.11 in 10.0 mi NE 3.5 mph - N/A Rain Light Freezing Rain
1:10 PM 28.4 °F 24.6 °F - N/A% 30.11 in 10.0 mi ENE 3.5 mph - N/A   Mostly Cloudy
1:30 PM 28.4 °F 23.3 °F - N/A% 30.11 in 10.0 mi ENE 4.6 mph - N/A   Partly Cloudy
1:50 PM 28.4 °F - - N/A% 30.11 in 10.0 mi Calm Calm - N/A   Partly Cloudy
2:10 PM 28.4 °F - - N/A% 30.12 in 10.0 mi Calm Calm - N/A   Scattered Clouds
2:30 PM 28.4 °F 23.3 °F - N/A% 30.12 in 10.0 mi West 4.6 mph - N/A   Overcast
2:50 PM 28.4 °F 20.4 °F - N/A% 30.12 in 8.0 mi SW 8.1 mph - N/A Snow Light Snow
3:10 PM 30.2 °F 26.7 °F - N/A% 30.13 in 10.0 mi SSW 3.5 mph - N/A   Mostly Cloudy
3:30 PM 30.2 °F 26.7 °F - N/A% 30.14 in 10.0 mi North 3.5 mph - N/A   Overcast
3:50 PM 26.6 °F - - N/A% 30.15 in 0.5 mi Calm Calm - N/A Snow Snow
4:10 PM 28.4 °F 24.6 °F - N/A% 30.16 in 9.0 mi SW 3.5 mph - N/A   Scattered Clouds
4:30 PM 28.4 °F 21.2 °F - N/A% 30.16 in 10.0 mi SW 6.9 mph - N/A   Mostly Cloudy
4:50 PM 28.4 °F - - N/A% 30.17 in 10.0 mi Calm Calm - N/A   Overcast
5:10 PM 26.6 °F 21.2 °F - N/A% 30.18 in 1.8 mi NNE 4.6 mph - N/A   Overcast
5:30 PM 24.8 °F 20.5 °F - N/A% 30.19 in 8.0 mi NE 3.5 mph - N/A Snow Light Snow
5:50 PM 26.6 °F 22.6 °F - N/A% 30.20 in 5.0 mi ESE 3.5 mph - N/A Snow Light Snow
6:10 PM 26.6 °F - - N/A% 30.20 in 10.0 mi Calm Calm - N/A   Mostly Cloudy
6:30 PM 24.8 °F - - N/A% 30.21 in 10.0 mi Calm Calm - N/A   Overcast
6:50 PM 24.8 °F 20.5 °F - N/A% 30.22 in 10.0 mi SSW 3.5 mph - N/A   Overcast
7:10 PM 24.8 °F - - N/A% 30.23 in 10.0 mi Calm Calm - N/A   Overcast
7:30 PM 23.0 °F 17.0 °F - N/A% 30.24 in 10.0 mi SSW 4.6 mph - N/A   Overcast
7:50 PM 23.0 °F 17.0 °F - N/A% 30.25 in 10.0 mi SW 4.6 mph - N/A   Mostly Cloudy
8:10 PM 23.0 °F 15.8 °F - N/A% 30.26 in 10.0 mi SW 5.8 mph - N/A   Mostly Cloudy
8:50 PM 21.2 °F 16.4 °F - N/A% 30.28 in 10.0 mi SSW 3.5 mph - N/A   Overcast
9:30 PM 19.4 °F 10.4 °F - N/A% 30.28 in 10.0 mi SW 6.9 mph - N/A   Mostly Cloudy
9:50 PM 19.4 °F 11.5 °F - N/A% 30.29 in 10.0 mi SSW 5.8 mph - N/A   Partly Cloudy
10:10 PM 17.6 °F 12.3 °F - N/A% 30.30 in 10.0 mi South 3.5 mph - N/A   Mostly Cloudy
10:30 PM 15.8 °F - - N/A% 30.30 in 10.0 mi Calm Calm - N/A   Overcast
10:50 PM 14.0 °F - - N/A% 30.31 in 10.0 mi Calm Calm - N/A   Overcast
11:10 PM 14.0 °F - - N/A% 30.31 in 10.0 mi Calm Calm - N/A   Overcast
11:30 PM 15.8 °F - - N/A% 30.31 in 10.0 mi Calm Calm - N/A   Overcast